User: anonymous   Login
Location: Unspecified
(0.0000°N, 0.0000°E)
Time: 18:42:28
(UTC+00:00)
Language:

GOMX4-A - Orbit

View from above orbital plane
View from above orbital plane
View from above satellite
View from above satellite

Ground track
Ground track

The orbit data is extracted from the following two-line orbital elements,

1 43197U 18015F   19077.78144286  .00000455  00000-0  21698-4 0  9997
2 43197  97.3753 206.7281 0017282 273.1174 191.0421 15.23932199 62359
Epoch (UTC): 18 March 2019 18:45:16
Eccentricity: 0.0017282
inclination: 97.3753°
perigee height: 482 km
apogee height: 506 km
right ascension of ascending node: 206.7281°
argument of perigee: 273.1174°
revolutions per day: 15.23932199
mean anomaly at epoch: 191.0421°
orbit number at epoch: 6235

The dashed part of the orbit path shows where the satellite is in the earth's shadow,  

DLR